Hourly Data Report for October 25, 2020

MUSKOKA
ONTARIO
Current Station Operator: NAVCAN

44°58'29.000" N
79°18'12.000" W
281.90 m
6115529
71532
YQA

Download Data

Hourly Data (October 2020)
Hourly Data Report for October 25, 2020
TIME Temp Definition
°C
Dew Point Definition
°C
Rel Hum Definition
%
Wind Dir Definition
10's deg

Wind Spd Definition
km/h
Visibility Definition
km
Stn Press Definition
kPa
Hmdx Definition


Wind Chill Definition


Weather Definition


00:00 0.2 -2.4 83 34 5 16.1 99.02     LegendNANA
01:00 -0.4 -2.3 87 1 5 16.1 99.00   -2 LegendNANA
02:00 -1.0 -2.6 89 LegendMM 4 16.1 99.02   -2 LegendNANA
03:00 -2.0 -2.6 96   0 16.1 99.09     LegendNANA
04:00 -1.6 -2.9 91 LegendMM 4 16.1 99.10   -3 LegendNANA
05:00 -2.1 -2.9 94   0 16.1 99.09     LegendNANA
06:00 -2.0 -2.7 95   0 16.1 99.18     LegendNANA
07:00 -2.5 -2.9 97   0 16.1 99.19     LegendNANA
08:00 -0.5 -1.9 90   0 16.1 99.27     LegendNANA
09:00 1.1 -3.6 71 10 9 16.1 99.28     LegendNANA
10:00 2.1 -4.0 64 9 8 16.1 99.31     LegendNANA
11:00 2.1 -3.7 66 10 11 16.1 99.28     LegendNANA
12:00 3.6 -4.1 57 15 17 16.1 99.22     LegendNANA
13:00 3.8 -5.0 53 14 13 16.1 99.18     LegendNANA
14:00 4.4 -5.2 50 12 9 16.1 99.16     LegendNANA
15:00 4.6 -5.9 47 12 11 16.1 99.11     LegendNANA
16:00 4.4 -5.2 50 11 11 16.1 99.06     LegendNANA
17:00 3.4 -5.2 54 10 8 16.1 99.04     LegendNANA
18:00 1.0 -3.9 70 LegendMM 4 16.1 99.05     LegendNANA
19:00 1.6 -4.3 65 10 5 16.1 99.07     LegendNANA
20:00 1.4 -4.7 64 11 5 16.1 99.00     LegendNANA
21:00 1.9 -5.2 59 11 8 16.1 98.99     LegendNANA
22:00 2.2 -6.7 52 12 8 16.1 98.97     LegendNANA
23:00 2.0 -7.0 51 9 8 16.1 98.90     LegendNANA

Notes on Data Quality.

Legend

  • E = Estimated
  • M = Missing
  • NA = Not Available*
  • [empty] = Indicates an unobserved value
Date modified: